Regional Weather Roundup
Issued by NWS San Diego, CA

Home | Current Version | Previous Version | Text Only | Print | Product List | Glossary On
Versions: 1 2 3 4 5 6 7 8 9 10 11 12 13 14 15 16 17 18 19 20 21 22 23 24 25 26 27
000
ASUS46 KSGX 232311
RWRSGX

SAN DIEGO HOURLY WEATHER ROUNDUP
NATIONAL WEATHER SERVICE SAN DIEGO CA
300 PM PST MON JAN 23 2017

NOTE: "FAIR" INDICATES FEW OR NO CLOUDS BELOW 12,000 FEET WITH NO
SIGNIFICANT WEATHER AND/OR OBSTRUCTIONS TO VISIBILITY.

CAZ042-043-060-061-PZZ750-775-240000-

GREATER SAN DIEGO AREA

CITY           SKY/WX    TMP DP  RH WIND       PRES   REMARKS
SAN DIEGO AP   CLOUDY    55  45  68 NW9       29.90S
NATIONAL CITY    N/A     54  48  78 NW5       29.89S
CHULA VISTA      N/A     53  49  87 W7        29.81S
IMPERIAL BEACH LGT RAIN  53  48  83 SW8       29.89F
BROWN FIELD    HVY RAIN  48  45  89 W12       29.89R FOG
MIRAMAR MCAS   CLOUDY    56  46  69 NW13      29.87F
MONTGOMERY FLD CLOUDY    52  44  74 W14       29.88S

$$

NORTH SAN DIEGO COUNTY

CITY           SKY/WX    TMP DP  RH WIND       PRES   REMARKS
CAMP PENDLETON RAIN      50  44  80 W7G20     29.86F
OCEANSIDE AP   LGT RAIN  55  32  41 W10       29.86F
OCEANSIDE HBR    N/A     55  48  77 SW10      29.89F
VISTA            N/A     50  46  85 NW3       29.85F
CARLSBAD       CLOUDY    53  45  74 W10       29.86F
DEL MAR          N/A     52  50  93 CALM      29.90F
LA JOLLA SCRIP   N/A     53  47  79 W3        29.87F
FALLBROOK        N/A     50  50  99 S2        29.85F
ESCONDIDO        N/A     51  47  87 W3        29.89S
SAN MARCOS       N/A     50  46  84 NW6       29.89F
POWAY            N/A     49  46  92 CALM      29.90

$$

EAST SAN DIEGO COUNTY

CITY           SKY/WX    TMP DP  RH WIND       PRES   REMARKS
RAMONA         CLOUDY    46  45  96 W12       29.85S
SANTEE LAKES     N/A     51  47  84 W5        29.88S
LA MESA          N/A     50  47  87 NW3       29.82S
JAMUL            N/A     47  45  93 CALM      29.89R
DESCANSO N       N/A     36  35  96 W7        29.79  WCI  30
CAMPO            N/A     42  41  96 SW21G30   29.77F

$$

ORANGE COUNTY AND THE LOS ANGELES BASIN

CITY           SKY/WX    TMP DP  RH WIND       PRES   REMARKS
JOHN WAYNE AP  PTSUNNY   54  43  66 W9        29.86S
LAGUNA BEACH     N/A     53  47  80 NW3       29.82S
LAKE FOREST FR   N/A     47  41  81 W2        29.77S
HUNTINGTON BCH   N/A     57  46  66 W7        29.87F
LOS ALAMITOS   PTSUNNY   56  43  61 W12       29.84F
FULLERTON      PTSUNNY   57  43  59 VRB6      29.84S
LONG BEACH     MOSUNNY   55  39  54 W12G20    29.85S
L.A. AP        MOSUNNY   54  43  66 W22G28    29.83F
L.A. DOWNTOWN  MOSUNNY   56  43  61 W5        29.83

$$

THE INLAND EMPIRE

CITY           SKY/WX    TMP DP  RH WIND       PRES   REMARKS
CORONA         PTSUNNY   51  44  77 W6        29.85F
CHINO          PTSUNNY   53  44  71 W6        29.85F
ONTARIO        PTSUNNY   48  43  82 SW6       29.83F
SAN BERNARDINO CLOUDY    46  39  76 E6        29.85R
RIVERSIDE AP   NOT AVBL
MORENO VALLEY    N/A     44  43  97 W5        27.96R
MARCH ARB      PTSUNNY   44  44 100 NW8       29.83F
HORSETHIEF CYN   N/A     45  37  73 E3        29.86R
PERRIS           N/A     44  42  94 W7        29.90R
HEMET EAST       N/A     43  38  83 SE1       29.92S
FRENCH VALLEY  NOT AVBL
TEMECULA         N/A     49  46  92 SW8       29.90F

$$

SAN BERNARDINO AND RIVERSIDE COUNTY MOUNTAINS

CITY           SKY/WX    TMP DP  RH WIND       PRES   REMARKS
BIG BEAR AP    SNOW      23  21  93 W9G18     29.70R VSB 1/2 WCI  13
ANGELUS OAKS     N/A     27  25  92 CALM      29.77R
PINE COVE        N/A     26  26  99 CALM      29.83R

$$

SOUTHERN DESERT INCLUDING THE COACHELLA VALLEY

CITY           SKY/WX    TMP DP  RH WIND       PRES   REMARKS
PALM SPRINGS   LGT RAIN  50  42  74 SW5       29.82F
PALM DESERT      N/A     55  43  64 N9        27.49S
THERMAL        PTSUNNY   57  41  55 NW10      29.80R
BLYTHE         MOSUNNY   60  38  43 W24       29.78S
IMPERIAL AP    MOSUNNY   58  40  51 W21G26    29.80F
EL CENTRO NAS  PTSUNNY   60  37  42 W13       29.84F
YUMA AZ        PTSUNNY   61  38  42 W21G28    29.80F
MEXICALI       PTSUNNY   59  37  44 W18       29.80

$$

UPPER DESERT

CITY           SKY/WX    TMP DP  RH WIND       PRES   REMARKS
VICTORVILLE AP CLOUDY    43  36  75 W15G21    29.77R
HESPERIA         N/A     40  39  94 W12       29.95S WCI  34
PALMDALE       LGT RAIN  43  37  79 W17       29.78S
LANCASTER      PTSUNNY   43  35  73 W13       29.78S
EDWARDS AFB    PTSUNNY   45  36  71 SW16      29.75F
DAGGETT        CLOUDY    46  37  71 SW14      29.76F
29 PALMS N     PTSUNNY   47  37  68 W20       29.84R
NEEDLES        LGT RAIN  57  40  52 SW8       29.74S

$$

REGIONAL REPORTS

CITY           SKY/WX    TMP DP  RH WIND       PRES   REMARKS
SANTA BARBARA  MOSUNNY   55  40  56 NW7       29.85S
SANDBERG       PTSUNNY   35  32  88 N14G23    29.77R WCI  26
LAS VEGAS NV   PTSUNNY   51  31  46 SW22G30   29.67R
PHOENIX AZ     CLOUDY    58  49  72 W14       29.75F
TIJUANA        RAIN      48  43  81 W16       29.92  FOG
ENSENADA NW      N/A     51  32  47 N6        29.89R

$$

OFFSHORE ISLANDS

CITY           SKY/WX    TMP DP  RH WIND       PRES   REMARKS
CATALINA ARPT  MOSUNNY   48  41  76 W24G32    29.83F
SAN CLEMENTE I LGT RAIN  50  42  74 W13G28    29.90R
SAN NICOLAS IS PTSUNNY   49  47  93 W14       29.87F

$$

MARINE AND OFFSHORE BUOY REPORTS

STATION/POSITION SKY/WX   TEMP    WIND        PRES    VSBY  SWELL
                          AIR SEA DIR/SP/G                  HT/PER/DIR
                          (F)     (DEG/KT/KT) (MB)    (MI)  (FT/S/D)
TANNER BANKS               54 57  300/ 21/ 27 1012.3         13/310/12
S CLEMENTE BASIN           56 60  270/ 23/ 31 1011.5         10/290/14
SAN NICOLAS IS.               57                N/A          11/280/13
SO. S. ROSA ISLA           52 56  290/ 16/ 17 1012.1         13/290/14
W. S. BARBARA CH           53 57  310/ 14/ 17 1012.1         11/290/12
M. S. BARBARA CH                  290/ 17/ 21 1011.8S
S. MONICA BASIN            54 58  280/ 17/ 23 1010.8F         8/260/14
S PEDRO CHANNEL               59                N/A           7/270/14
CMP PENDLETON NS              58                N/A           3/250/14
OCEANSIDE OFFSHR              59                N/A           3/250/14
TORREY PINES OTR              59                N/A           7/280/12
POINT LOMA SOUTH              60                N/A           8/290/13

$$





USA.gov is the U.S. government's official web portal to all federal, state and local government web resources and services.